Temperature
19 19 20 20 17 14 17 18 18 18 18 20 20 19 17 18 18 18 19 19 18 17 16 15 14 13 12 12 12 12 11 11 11 11 11 10 10 10 10 10 10 10 10 10 10 10 10 10 10
19 20 20 20 14 15 17 18 18 19 19 20 20 19 18 18 19 19 19 18 18 17 17 15 14 13 12 12 12 12 11 11 11 11 11 10 10 10 10 10 10 10 10 10 10 10 10 10 10
19 20 20 15 15 15 18 18 18 19 20 20 19 19 19 19 19 19 19 18 18 17 16 15 14 13 13 12 12 11 11 11 11 11 10 10 10 10 10 10 10 10 10 10 10 10 11 11 11
20 20 19 15 17 17 17 18 17 19 20 20 19 18 18 19 19 19 19 18 18 17 16 15 14 13 12 12 12 11 11 11 10 10 10 10 10 10 10 10 10 10 10 10 10 10 11 11 11
20 20 15 15 17 17 17 18 18 18 19 19 19 18 18 18 19 19 18 18 17 17 16 15 13 13 12 12 11 11 11 10 10 10 10 10 10 10 10 10 10 10 10 10 10 10 10 10 10
20 16 14 15 17 17 17 18 18 18 18 19 18 18 18 18 19 19 18 17 17 16 15 14 13 13 12 12 11 11 11 10 10 10 10 9 9 9 10 10 10 10 10 10 10 10 10 10 10
19 14 15 16 16 17 18 19 18 18 18 18 18 17 18 18 18 18 18 17 16 15 15 14 13 12 12 11 11 11 11 10 10 10 10 9 9 9 9 9 9 9 10 10 10 10 10 10 10
19 14 16 15 16 18 18 19 19 18 18 18 18 17 18 18 18 18 17 16 16 15 14 14 13 12 12 11 11 11 10 10 10 10 10 9 9 9 9 9 9 9 9 9 9 9 9 9 9
19 14 15 17 17 18 18 18 19 18 18 18 18 18 18 18 18 17 17 16 15 14 14 13 13 12 12 11 11 11 10 10 10 10 10 9 9 9 9 9 9 9 9 9 9 9 9 9 9
18 14 17 17 17 18 18 18 18 18 17 17 18 18 18 18 17 17 17 16 15 15 14 13 13 12 12 11 11 10 10 10 10 9 9 9 9 9 9 9 8 8 8 8 8 8 8 8 8
18 16 17 18 18 18 18 18 18 17 16 17 18 18 18 17 17 17 16 16 16 15 14 13 13 12 12 11 11 10 10 10 10 9 9 9 9 9 9 8 8 8 8 8 8 8 8 8 8
17 17 17 18 18 18 18 17 17 17 17 18 17 17 17 17 17 17 16 16 15 14 14 13 13 12 12 11 11 10 10 10 10 9 9 9 9 9 8 8 8 8 8 8 8 7 7 7 7
17 17 18 18 18 18 17 17 16 16 17 17 17 17 17 17 16 16 16 15 15 14 14 13 13 12 11 11 11 10 10 10 10 9 9 9 9 9 9 8 8 8 8 8 8 7 7 7 7
17 17 17 17 17 17 16 16 15 16 17 17 16 16 16 16 16 16 15 15 15 14 14 13 13 12 11 11 11 10 10 10 9 9 9 9 9 9 8 8 8 8 8 8 7 7 7 7 7
17 16 15 16 16 16 16 15 14 17 16 16 16 16 16 16 15 15 15 15 15 14 14 13 12 12 11 11 11 10 10 10 10 9 9 9 9 9 8 8 8 8 8 7 7 7 7 7 7
16 15 15 15 15 16 16 15 15 16 16 15 16 16 15 15 15 15 15 15 15 14 14 13 12 12 11 11 11 10 10 10 10 9 9 9 9 8 8 8 8 8 8 7 7 7 7 7 7
14 14 15 15 15 15 15 14 14 16 15 15 15 15 15 15 15 15 15 15 15 14 14 13 12 12 11 11 11 10 10 10 10 9 9 9 9 8 8 8 8 8 8 7 7 7 7 7 7
14 14 14 14 15 14 13 13 13 14 14 14 14 15 15 15 15 15 15 15 14 14 14 13 12 12 11 11 11 10 10 10 10 9 9 9 9 8 8 8 8 8 8 7 7 7 7 6 6
14 14 13 13 14 14 12 12 13 14 13 12 13 14 14 15 15 14 14 14 14 14 13 13 12 12 11 11 10 10 10 10 9 9 9 9 8 8 8 8 8 8 7 7 7 7 6 6 6
14 14 13 13 13 13 12 12 12 12 12 13 13 13 14 14 14 14 14 14 14 14 13 13 12 12 11 11 11 10 10 10 9 9 9 9 8 8 8 8 8 7 7 7 6 6 6 6 5
13 13 13 13 13 13 12 12 12 12 12 12 13 14 14 15 15 14 14 14 14 14 13 13 12 12 11 11 10 10 10 10 9 9 9 9 8 8 8 8 7 7 7 6 6 5 5 5 4
13 13 13 13 13 11 12 11 12 12 11 10 11 12 13 14 14 14 14 14 14 13 13 12 12 11 11 11 10 10 10 10 9 9 9 8 8 8 7 7 7 6 6 6 5 5 4 4 4
13 13 13 13 12 11 11 11 12 11 12 11 10 12 13 14 14 14 14 14 13 13 13 12 12 11 11 10 10 10 10 9 9 9 8 8 8 7 7 7 6 6 6 5 5 4 4 4 3
13 12 11 9 10 11 11 10 11 11 12 12 11 12 13 13 13 14 13 13 13 12 12 12 11 11 11 10 10 10 9 9 9 8 8 8 7 7 7 6 6 5 5 5 4 4 4 3 3
13 12 11 11 10 10 11 10 11 12 12 11 12 13 13 13 13 13 13 13 13 12 12 12 11 11 11 10 10 9 9 9 9 8 8 7 7 7 6 6 5 5 4 4 4 3 3 3 2
12 12 11 12 11 10 10 9 11 12 12 12 12 13 13 13 13 13 13 13 13 13 12 12 11 11 10 10 10 9 9 8 8 8 7 7 6 6 6 5 5 4 4 3 3 3 2 2 2
11 11 11 10 11 10 10 10 10 12 12 11 12 12 13 13 13 13 13 13 13 12 12 12 11 11 10 10 9 9 8 8 8 7 7 6 6 5 5 4 4 4 3 3 2 2 2 1 1
11 10 9 10 11 11 10 10 12 14 14 12 11 12 13 13 13 13 13 13 13 12 12 11 11 10 10 9 9 8 8 8 7 7 6 6 5 5 4 4 3 3 3 2 2 2 1 1 0
10 11 10 9 9 10 10 11 12 12 13 11 11 13 14 14 14 14 13 13 12 11 11 11 10 10 9 9 8 8 7 7 7 6 6 5 5 4 4 3 3 3 2 2 1 1 0 -0 -0
11 10 9 10 10 8 8 11 12 11 10 11 12 14 15 15 14 14 13 12 12 11 11 10 10 9 9 8 8 7 7 6 6 6 5 5 4 4 3 3 2 2 2 1 1 0 -0 -1 -1
Wind_Speed
6 3 2 4 6 6 2 2 2 2 2 1 2 6 9 5 3 1 1 7 6 9 16 17 17 16 14 13 11 11 10 10 10 10 10 10 10 10 11 11 11 12 13 13 13 14 14 14 14
3 2 5 5 5 4 2 3 2 3 1 3 4 4 5 2 0 1 1 6 7 13 17 16 18 16 15 13 12 11 11 10 10 9 9 9 10 10 10 11 11 11 12 12 12 13 13 13 13
1 4 5 5 5 5 3 2 3 2 2 3 4 3 3 1 1 1 2 7 9 13 16 16 18 16 15 14 12 12 11 10 9 9 8 8 9 9 10 10 10 10 10 11 11 11 11 12 12
3 5 6 6 3 2 3 2 2 2 2 4 4 3 1 1 2 1 4 8 9 11 15 17 18 16 15 14 13 12 11 10 9 8 8 8 8 8 8 8 8 8 9 9 10 10 10 10 10
5 5 6 4 2 3 2 2 1 1 1 3 3 3 1 3 2 2 6 9 11 9 14 16 18 16 15 14 13 12 11 9 8 7 7 8 7 7 7 7 7 7 7 8 8 9 9 9 9
5 5 5 2 3 4 3 2 1 1 1 2 3 4 2 2 3 2 5 7 9 10 13 15 17 16 15 14 13 12 11 9 8 7 7 6 6 5 5 5 5 5 6 6 7 7 8 8 8
5 5 4 2 1 3 2 2 2 1 0 1 3 4 3 3 2 2 4 6 7 10 11 12 15 16 15 14 13 12 11 10 8 7 6 5 4 4 4 3 3 3 4 5 5 6 7 7 8
5 5 4 1 1 2 3 1 1 2 2 1 2 4 4 3 2 5 6 6 6 6 8 10 12 14 14 14 13 13 11 10 8 7 7 5 4 3 2 1 1 2 3 4 5 6 7 7 7
4 5 2 3 4 3 1 0 1 0 2 1 0 2 2 1 5 7 5 5 6 7 6 7 9 11 12 13 13 12 11 9 8 7 7 6 5 4 3 2 2 3 3 4 6 7 7 8 7
5 4 4 4 4 3 1 2 1 1 1 2 2 1 2 3 5 7 7 9 10 10 8 5 7 10 11 10 11 11 10 9 7 7 7 6 5 4 4 3 3 4 4 5 7 8 8 7 7
3 5 4 3 3 3 2 2 1 3 5 6 6 4 2 2 3 6 7 8 9 9 9 7 7 10 10 9 9 9 8 8 7 6 6 6 5 4 3 3 3 4 4 5 6 7 7 7 8
1 3 3 3 2 3 3 2 2 5 7 4 4 3 3 4 4 5 6 6 7 8 9 8 7 8 9 9 8 8 7 6 6 6 7 6 4 3 3 3 4 5 5 6 6 7 8 8 9
1 3 2 3 3 3 3 4 4 5 5 0 3 4 4 4 3 2 3 4 6 8 8 7 7 7 8 7 6 6 6 6 6 6 6 6 5 4 3 4 5 6 6 6 6 7 7 8 9
2 3 4 4 3 3 4 4 3 7 2 3 4 4 3 3 2 2 2 4 6 8 8 7 7 8 8 6 6 6 6 6 6 5 5 5 5 4 3 3 4 5 6 7 7 7 6 7 7
1 4 6 3 2 2 2 5 7 6 4 4 4 4 3 2 1 2 3 4 6 7 7 7 7 7 7 6 6 6 6 6 5 4 4 4 3 3 3 2 3 5 6 6 6 6 5 5 5
4 4 4 6 1 1 3 8 8 3 6 6 6 5 3 2 1 2 2 3 4 6 7 7 7 7 7 6 6 6 6 6 4 4 3 2 2 2 2 2 3 4 4 4 3 3 3 4 4
4 2 4 7 3 1 4 9 8 3 7 8 8 7 5 3 1 1 0 2 4 6 7 7 7 7 7 6 7 7 6 5 4 4 3 2 1 1 1 1 3 3 2 2 2 2 2 3 5
4 3 4 6 5 2 6 12 12 6 8 10 9 8 7 6 4 2 2 3 4 5 6 7 7 7 6 5 5 4 5 4 5 4 3 3 3 2 1 1 2 2 1 2 2 2 2 3 4
3 4 6 8 5 4 10 14 16 9 8 11 10 10 9 8 4 2 3 4 5 5 6 7 7 6 6 4 4 3 3 2 2 3 4 4 4 3 2 2 2 2 1 2 2 1 3 3 2
3 4 7 8 4 4 8 13 13 9 9 11 13 13 12 8 6 5 4 4 4 5 6 6 7 7 6 4 4 3 3 2 2 2 4 4 4 3 2 1 1 1 1 2 2 1 2 2 2
5 6 7 7 7 5 7 11 8 6 4 6 9 10 10 12 11 8 7 5 5 5 6 6 6 6 6 6 5 4 4 3 2 1 1 3 3 3 2 2 1 1 0 1 2 1 1 3 2
7 7 6 4 3 6 3 7 10 7 6 7 9 9 11 10 10 9 8 7 6 6 5 6 6 6 6 6 6 6 4 3 2 1 0 2 3 3 3 2 2 1 1 2 3 2 2 2 3
7 1 2 0 2 5 3 4 10 5 8 9 9 11 11 11 12 11 10 9 7 6 6 6 6 6 5 5 6 6 4 3 2 1 1 1 3 4 3 3 2 1 1 2 3 3 3 3 4
5 6 5 5 4 4 5 6 9 6 8 8 6 9 11 11 10 9 8 7 6 6 6 6 7 5 5 5 6 6 6 5 3 1 0 1 1 2 3 3 2 2 2 3 4 4 5 5 5
5 5 4 5 2 6 3 5 10 10 8 8 9 9 10 11 11 11 10 10 9 8 8 7 7 6 5 5 5 5 6 5 4 3 2 1 1 2 3 2 2 3 4 5 5 4 5 5 6
7 9 7 5 5 6 3 7 9 9 8 8 8 7 8 11 11 12 12 12 11 10 9 8 8 6 6 6 5 4 5 3 3 3 3 3 3 3 3 4 4 5 6 6 5 4 6 6 7
7 6 7 5 2 4 7 8 11 6 6 5 4 3 7 10 12 12 11 11 10 10 10 10 9 7 6 6 5 4 4 4 3 3 2 3 3 3 4 4 5 6 6 6 6 5 7 7 7
6 9 6 5 4 5 7 7 6 8 8 7 6 6 6 8 9 10 10 10 10 9 8 8 8 8 6 6 5 4 4 4 4 3 3 4 4 4 4 5 5 6 6 7 6 7 7 8 8
6 5 5 5 5 5 5 8 7 8 7 8 9 7 7 9 10 10 10 9 8 8 8 8 7 7 6 6 5 4 4 3 3 3 4 5 4 5 5 6 6 7 8 7 7 8 9 9 9
8 9 9 6 6 6 4 9 7 8 8 8 9 7 6 7 7 8 8 8 9 9 8 8 8 7 7 6 5 4 4 3 3 4 5 5 5 5 6 6 7 8 8 8 8 10 9 10 10
Wind_Direction
327 352 67 55 54 54 72 282 238 258 260 258 111 131 133 139 149 165 311 150 148 151 171 171 162 160 157 152 144 137 129 119 112 105 99 93 87 80 73 67 63 58 56 58 57 55 55 52 50
324 28 54 59 82 77 306 270 228 236 236 103 78 93 99 94 27 142 126 173 154 156 167 168 164 162 159 155 148 142 137 126 117 109 103 97 91 81 74 69 64 60 58 57 56 55 54 52 49
3 47 76 71 97 150 194 242 229 308 23 88 82 60 115 137 313 221 202 162 147 155 164 166 165 164 162 159 155 147 140 133 125 115 107 101 92 82 75 69 65 62 59 56 54 52 51 50 47
66 45 54 70 89 204 229 276 285 324 27 47 104 82 345 323 278 276 140 146 143 153 163 168 167 166 165 163 161 153 148 142 135 126 118 109 95 84 76 70 66 62 58 55 51 48 46 44 42
56 71 59 51 4 311 293 315 345 23 30 26 105 127 270 345 9 93 138 149 150 152 163 170 169 169 167 166 163 157 152 148 144 138 131 118 105 94 85 75 66 58 53 49 45 42 39 36 34
53 63 77 63 329 326 330 341 22 24 16 38 110 142 239 346 43 104 145 152 152 154 162 173 173 172 170 169 166 161 157 156 154 151 142 131 117 107 94 83 69 55 46 40 35 32 29 26 23
94 85 114 129 321 330 330 345 111 124 43 286 161 151 275 313 34 109 126 133 142 153 159 174 177 174 173 171 170 169 165 165 166 160 151 143 134 125 110 89 64 45 34 26 19 15 13 12 10
111 98 90 107 171 278 307 350 141 174 206 333 142 165 238 255 78 98 99 113 134 149 162 173 173 172 173 172 174 172 171 170 172 167 159 152 147 139 134 121 30 3 1 356 354 354 354 354 353
81 75 126 201 194 244 287 0 344 118 105 19 276 210 285 84 109 110 110 129 154 167 170 175 167 166 169 171 175 175 176 176 174 171 163 157 157 160 167 186 261 306 322 329 333 337 340 344 342
77 121 213 217 204 217 242 218 253 83 330 292 282 285 50 100 131 141 153 165 175 181 183 179 168 163 165 168 173 175 176 176 173 169 167 167 171 181 192 219 253 290 312 320 325 329 337 340 330
107 172 229 247 222 210 217 233 217 183 241 231 227 228 162 141 148 164 172 177 185 185 185 182 172 166 164 164 168 170 171 170 171 173 175 174 175 187 205 232 261 281 294 300 306 312 316 318 315
117 227 222 245 204 195 215 215 226 212 232 236 212 181 169 172 187 191 187 185 181 182 190 184 173 167 166 164 163 165 163 164 172 179 177 172 176 193 217 241 258 270 280 286 291 294 298 299 299
210 264 257 259 255 231 220 231 236 243 247 250 116 130 164 179 201 217 191 172 174 186 189 184 170 168 163 155 156 158 162 168 177 176 181 184 185 200 218 245 262 271 276 275 278 282 287 290 292
273 283 294 285 261 233 209 250 223 251 201 145 143 154 177 189 207 198 181 176 179 187 187 177 171 165 157 154 153 155 157 158 158 167 180 188 195 202 217 242 259 270 272 271 272 276 280 284 286
9 340 323 297 258 243 179 288 239 235 155 171 180 184 187 214 213 216 212 192 185 184 179 173 170 157 153 152 152 149 151 151 154 166 166 174 195 212 219 236 260 274 282 282 284 286 284 283 285
49 24 322 301 279 228 165 270 269 202 170 199 206 205 207 227 234 258 229 185 175 166 164 167 163 153 150 146 142 139 143 141 145 146 147 164 193 211 206 234 270 293 300 292 280 279 290 287 287
26 340 289 302 280 195 212 255 269 184 185 210 215 213 212 218 238 280 178 155 154 156 155 152 149 150 148 136 129 125 123 120 121 116 110 101 95 117 174 244 291 314 314 304 296 294 273 287 293
260 264 275 279 286 226 244 258 267 231 211 222 219 216 214 211 218 197 141 122 121 129 137 140 134 136 132 120 110 102 94 88 88 91 87 79 67 65 78 18 350 356 351 333 327 303 292 275 289
200 235 266 267 272 250 254 264 270 251 224 227 222 215 214 215 211 168 140 126 114 115 127 136 136 139 137 128 127 123 118 101 81 72 70 63 56 51 55 29 360 2 343 315 319 311 311 302 312
205 256 273 285 291 246 279 277 269 248 226 220 213 211 208 202 192 183 162 144 134 135 137 138 141 143 144 139 132 127 126 117 104 69 55 53 51 45 45 31 351 351 340 341 338 328 314 301 335
222 221 245 269 318 332 324 301 288 279 246 234 217 210 204 197 193 187 178 171 154 152 156 152 146 141 136 127 113 95 82 73 67 53 32 22 31 33 34 21 359 345 319 301 299 272 249 286 297
248 236 226 263 317 300 359 302 289 284 287 249 228 214 207 200 190 186 183 179 177 172 158 146 142 138 137 137 139 140 145 156 177 169 138 356 19 22 20 11 359 331 296 284 287 270 238 235 275
215 99 138 295 229 299 285 238 285 309 285 265 237 221 212 201 191 189 187 183 175 165 157 149 139 136 140 142 145 139 136 146 146 131 72 8 0 4 2 356 346 323 295 278 278 281 257 230 241
137 74 55 49 71 285 239 202 281 260 245 274 259 226 212 199 192 188 180 168 166 161 157 151 146 145 147 144 144 146 148 151 147 152 155 333 330 329 338 337 326 305 290 279 274 266 262 252 249
112 93 360 337 338 257 226 215 254 258 250 253 265 246 212 195 187 183 180 179 177 174 171 165 158 158 158 151 152 157 159 161 169 184 201 241 280 285 298 313 304 296 288 285 277 266 267 259 254
173 154 175 229 252 287 270 239 257 266 279 274 265 247 201 191 191 192 190 186 184 181 176 172 170 167 165 162 162 160 157 160 174 189 199 219 235 252 266 281 285 287 288 286 277 267 265 261 256
148 191 170 150 231 271 275 283 300 287 302 304 295 239 207 199 196 196 191 188 185 183 183 179 174 170 172 170 163 162 164 171 186 200 208 227 242 253 264 274 277 282 282 278 273 267 268 266 261
152 147 120 151 211 262 284 278 261 294 302 310 296 263 235 209 201 198 194 191 188 185 180 175 175 176 174 171 172 173 180 187 192 199 225 240 250 254 266 272 273 277 277 275 271 271 268 267 266
140 150 150 151 173 190 265 271 231 243 273 283 279 263 238 216 206 201 196 189 181 175 174 177 179 175 176 178 176 175 188 193 198 217 237 245 253 257 263 267 273 276 277 275 272 271 272 270 271
178 179 156 172 219 197 214 267 265 250 270 269 270 266 244 223 209 198 188 178 178 181 181 183 184 184 185 180 177 186 193 199 217 238 248 250 257 261 262 268 273 275 276 273 271 274 275 271 273
Height
1526 1527 1529 1530 1535 1548 1550 1545 1542 1541 1540 1539 1539 1539 1540 1543 1546 1551 1547 1545 1546 1546 1547 1549 1550 1551 1553 1554 1555 1556 1557 1557 1558 1558 1558 1558 1558 1558 1558 1557 1557 1557 1556 1556 1555 1555 1554 1554 1554
1527 1529 1531 1531 1544 1558 1552 1543 1542 1540 1539 1539 1539 1540 1540 1542 1543 1544 1545 1545 1546 1547 1547 1549 1550 1552 1553 1555 1556 1556 1557 1558 1559 1559 1559 1559 1559 1559 1559 1558 1558 1557 1557 1557 1556 1556 1555 1555 1554
1529 1530 1532 1535 1548 1554 1548 1541 1540 1539 1539 1539 1540 1540 1541 1542 1543 1544 1545 1545 1546 1547 1548 1549 1551 1552 1554 1555 1556 1557 1558 1559 1559 1560 1560 1560 1560 1560 1560 1559 1559 1558 1558 1558 1557 1557 1556 1556 1555
1530 1532 1533 1542 1546 1545 1543 1540 1540 1539 1539 1539 1540 1541 1542 1543 1543 1544 1545 1545 1546 1547 1548 1549 1551 1553 1554 1555 1557 1558 1558 1559 1560 1561 1561 1561 1561 1561 1561 1560 1560 1559 1559 1558 1558 1558 1557 1557 1556
1531 1532 1541 1549 1546 1543 1540 1540 1540 1540 1540 1540 1540 1541 1541 1543 1543 1544 1545 1545 1546 1547 1548 1550 1551 1553 1555 1556 1557 1558 1559 1560 1561 1561 1562 1562 1562 1562 1562 1561 1561 1560 1560 1559 1559 1559 1558 1558 1557
1532 1534 1550 1553 1547 1543 1540 1540 1540 1540 1540 1540 1540 1541 1541 1542 1543 1543 1544 1545 1546 1547 1548 1550 1552 1553 1555 1556 1558 1559 1560 1561 1561 1562 1562 1562 1563 1562 1562 1562 1562 1561 1561 1560 1560 1560 1559 1559 1558
1534 1541 1549 1549 1549 1544 1541 1540 1540 1541 1540 1541 1541 1541 1541 1541 1542 1542 1543 1544 1545 1547 1548 1550 1552 1554 1555 1557 1558 1559 1560 1561 1562 1562 1563 1563 1563 1563 1563 1563 1562 1562 1562 1561 1561 1560 1560 1559 1559
1534 1540 1548 1550 1548 1545 1541 1540 1540 1540 1540 1541 1540 1540 1540 1541 1541 1541 1542 1543 1544 1546 1548 1550 1552 1554 1555 1557 1558 1559 1560 1561 1562 1563 1563 1564 1564 1564 1564 1563 1563 1563 1562 1562 1561 1561 1560 1559 1559
1536 1546 1551 1547 1546 1543 1540 1540 1540 1540 1539 1539 1539 1539 1539 1539 1539 1540 1540 1542 1543 1545 1547 1549 1551 1553 1555 1557 1558 1560 1561 1562 1562 1563 1563 1564 1564 1564 1564 1563 1563 1563 1562 1562 1561 1561 1560 1559 1558
1537 1548 1544 1541 1540 1540 1539 1539 1539 1539 1539 1538 1538 1538 1537 1537 1537 1538 1539 1540 1541 1543 1546 1548 1550 1553 1554 1556 1558 1559 1560 1561 1562 1563 1563 1563 1563 1563 1563 1563 1563 1563 1562 1561 1561 1560 1559 1558 1557
1537 1542 1539 1538 1538 1538 1538 1538 1538 1538 1538 1536 1536 1536 1536 1536 1536 1537 1538 1539 1540 1542 1544 1547 1549 1552 1554 1556 1557 1559 1560 1561 1561 1562 1562 1563 1563 1563 1563 1563 1562 1562 1561 1560 1560 1559 1558 1557 1556
1538 1538 1538 1537 1537 1537 1537 1537 1536 1536 1535 1535 1534 1534 1534 1534 1534 1535 1536 1537 1539 1541 1543 1546 1548 1551 1553 1555 1556 1558 1559 1560 1561 1561 1561 1562 1562 1562 1562 1561 1561 1560 1560 1559 1558 1557 1556 1555 1554
1537 1537 1536 1536 1536 1536 1536 1535 1535 1533 1532 1532 1532 1532 1533 1533 1533 1534 1535 1536 1537 1539 1542 1544 1547 1549 1552 1554 1555 1557 1558 1559 1560 1560 1560 1560 1560 1560 1560 1559 1559 1558 1558 1557 1555 1554 1553 1552 1551
1537 1536 1535 1534 1534 1534 1534 1533 1533 1529 1530 1530 1530 1531 1531 1532 1532 1532 1533 1534 1535 1537 1540 1542 1545 1548 1550 1552 1554 1555 1557 1558 1558 1559 1559 1559 1559 1559 1558 1558 1557 1556 1555 1554 1553 1551 1550 1549 1547
1536 1537 1535 1533 1533 1532 1533 1533 1530 1527 1528 1528 1528 1529 1530 1530 1530 1531 1531 1532 1534 1536 1538 1540 1543 1546 1548 1551 1553 1554 1555 1556 1557 1557 1557 1557 1557 1557 1556 1555 1555 1554 1553 1551 1550 1548 1547 1545 1543
1537 1541 1542 1535 1532 1532 1536 1536 1525 1525 1525 1526 1526 1527 1528 1528 1529 1529 1530 1531 1532 1534 1536 1539 1541 1544 1547 1549 1551 1553 1554 1555 1555 1555 1555 1555 1555 1554 1554 1553 1552 1551 1549 1548 1546 1544 1543 1541 1539
1544 1548 1544 1538 1532 1532 1534 1533 1523 1523 1523 1523 1524 1524 1525 1526 1527 1528 1528 1529 1530 1532 1534 1537 1539 1542 1545 1547 1549 1551 1552 1553 1553 1554 1553 1553 1553 1552 1551 1550 1549 1548 1546 1544 1543 1541 1539 1536 1534
1547 1546 1545 1542 1534 1533 1534 1530 1521 1520 1520 1519 1520 1521 1522 1523 1525 1526 1527 1528 1529 1531 1533 1535 1538 1541 1543 1546 1548 1549 1550 1551 1551 1551 1551 1551 1550 1549 1548 1547 1546 1544 1543 1541 1539 1537 1535 1532 1529
1541 1544 1545 1541 1533 1534 1532 1527 1518 1515 1516 1515 1515 1517 1518 1520 1523 1524 1526 1527 1528 1530 1532 1534 1536 1539 1541 1543 1545 1547 1548 1548 1549 1549 1549 1548 1547 1546 1545 1544 1543 1541 1539 1537 1535 1533 1530 1528 1525
1541 1544 1543 1538 1532 1533 1531 1524 1514 1509 1509 1507 1508 1510 1513 1516 1519 1521 1523 1525 1527 1529 1530 1532 1535 1537 1539 1541 1543 1544 1546 1546 1546 1546 1546 1545 1544 1543 1542 1541 1539 1538 1536 1534 1531 1529 1526 1524 1522
1540 1542 1540 1539 1534 1532 1532 1523 1513 1505 1504 1503 1503 1505 1508 1511 1514 1517 1520 1523 1525 1527 1529 1531 1533 1535 1537 1539 1540 1542 1543 1543 1544 1544 1543 1543 1542 1540 1539 1537 1536 1534 1532 1530 1528 1525 1523 1520 1519
1541 1534 1536 1536 1540 1543 1537 1539 1515 1507 1503 1500 1499 1501 1503 1506 1510 1514 1517 1520 1522 1524 1527 1529 1531 1533 1534 1536 1538 1539 1540 1540 1541 1541 1540 1540 1539 1537 1536 1534 1532 1530 1528 1526 1524 1521 1519 1516 1514
1533 1531 1534 1536 1539 1543 1540 1541 1518 1509 1503 1497 1495 1496 1498 1502 1506 1510 1513 1517 1520 1522 1524 1526 1528 1530 1532 1533 1535 1536 1537 1537 1538 1538 1537 1536 1535 1534 1532 1530 1528 1526 1524 1522 1519 1517 1515 1512 1509
1529 1534 1538 1544 1546 1549 1539 1543 1526 1510 1500 1494 1491 1492 1494 1498 1502 1506 1511 1514 1517 1519 1522 1524 1526 1528 1529 1531 1532 1533 1534 1534 1534 1534 1534 1533 1532 1530 1528 1526 1524 1522 1519 1517 1514 1512 1510 1507 1504
1530 1540 1551 1550 1552 1548 1537 1539 1522 1499 1494 1492 1490 1489 1490 1494 1498 1502 1506 1510 1513 1516 1518 1521 1523 1525 1526 1528 1529 1530 1531 1531 1531 1531 1530 1529 1527 1526 1524 1522 1519 1517 1515 1512 1509 1507 1504 1501 1499
1530 1535 1549 1551 1551 1546 1536 1536 1510 1494 1490 1488 1487 1486 1487 1490 1494 1498 1502 1506 1509 1513 1515 1518 1520 1522 1524 1525 1526 1527 1527 1528 1528 1527 1526 1525 1523 1521 1519 1517 1515 1512 1509 1507 1504 1501 1498 1495 1492
1530 1534 1534 1545 1546 1548 1538 1525 1507 1490 1488 1486 1485 1484 1485 1487 1490 1494 1499 1502 1506 1509 1512 1515 1517 1519 1521 1522 1523 1524 1524 1524 1524 1523 1522 1520 1518 1516 1514 1512 1509 1507 1504 1501 1498 1494 1491 1488 1485
1522 1528 1540 1543 1547 1546 1537 1528 1514 1495 1488 1486 1485 1484 1484 1486 1488 1491 1495 1499 1503 1506 1509 1512 1514 1516 1517 1519 1519 1520 1520 1520 1519 1518 1517 1515 1513 1511 1509 1506 1504 1501 1498 1495 1491 1487 1484 1481 1477
1524 1528 1530 1538 1542 1544 1540 1524 1499 1493 1488 1487 1484 1482 1483 1484 1485 1488 1492 1496 1499 1502 1505 1508 1510 1512 1513 1515 1516 1516 1516 1516 1515 1514 1512 1510 1508 1506 1503 1500 1497 1494 1491 1488 1484 1480 1476 1472 1469
1515 1518 1526 1533 1536 1541 1541 1521 1489 1489 1486 1485 1482 1481 1481 1482 1484 1486 1489 1492 1495 1498 1501 1503 1506 1507 1509 1511 1511 1512 1511 1511 1510 1509 1507 1505 1503 1500 1497 1494 1491 1488 1484 1480 1476 1472 1469 1465 1461